loading
DOY 198 | 2024-07-16T11:43:58Z
Showing default

FLOCK 4Y 28, 55033

Orbit data source: Space-Track

FLOCK 4Y 28, 55033 is a payload satellite owned by Planet (US) in LEO that was launched on Tue, 03 Jan 2023 UTC via a Falcon 9 launch vehicle from the Air Force Eastern Test Range (AFETR). Payloads include a variety of satellites, spacecraft, and rockets equipped with specific instruments for various scientific and technological missions. These include communications satellites like Starlink; space stations such as the ISS; scientific satellites like the Hubble; Earth observation satellites from companies like Planet Labs, Umbra, and HawkEye 360; GPS; miniature CubeSats for education and research; and military/defense satellites.

Loading next visibility...
Loading greatness...
FLOCK 4Y 28 details
NORAD ID55033
COSPAR ID
2023-001AA
Orbit
LEO
Last TLE update13 hours ago
Origin
Flag of USPlanet (US)
ManufacturerPlanet
BusCubesat 3U
MotorUnknown
Mass5.7 kg wet, 5.7 kg dry
Launch date (UTC)
2023-01-03 (2 years ago)
Launch vehicle
Falcon 9
Launch site
Air Force Eastern Test Range (AFETR)
Object type
Payload
Rocket body
Debris
Radar Cross SectionMedium (>0.1 m² and <1 m²)
Predictive object data (real-time)
Latitude-15.36672°
Longitude170.86723°
Altitude464.811 km
Speed7.631 km/s
Apparent Right ascension08h 09m 44s
Apparent Declination-39° 24' 43"
Sunlit
Object is in daylight
Predictive observer data (real-time)
Local Sidereal Time00:22:43
Azimuth110.925° ESE
Elevation-42.388°
Doppler factor1
Orbital elements
Apogee457.246 km
Perigee446.708 km
Semi-major axis6,830.114 km
Eccentricity0.0007714
Inclination97.4183°
RAAN262.4003°
Arg. of periapsis65.3364°
True anomaly294.78807°
Mean anomaly294.8683°
Mean motion3.84504 °/min
BSTAR0.00082009
Period93.63 mins
Definitive object data (Epoch: 2024-07-15T22:23:11.053Z)
Latitude0.00001°
Longitude-7.65465°
Altitude455.932 km
Speed7.64 km/s
True Right ascension17h 29m 36s
True Declination0° 00' 00"
Sunlit
Object was in full shadow at TLE epoch
TLE from 13 hours ago
0 FLOCK 4Y 28
1 55033U 23001AA  24197.93276682  .00029691  00000-0  82009-3 0  9997
2 55033  97.4183 262.4003 0007714  65.3364 294.8683 15.36984224 85369
Epoch: 2024-07-15T22:23Z
No data available

FLOCK 4Y 28 Visibility forecast

Observer location: 39.9160978°, -105.1181434

FLOCK 4Y 28 is not visible in the next 10 days
Span
Click to sort rows by Start time (UTC) header in descending order
Start Az.
Max El. time (UTC)
Max El. Az.
Max El.
End time (UTC)
End Az.